Deer Park, WA

2:41 AM PDT on March 26, 2017 (GMT -0700)
Deer Park

Weather History for KDEW - March, 2012

Change the Weather History Date:

Wednesday, March 21, 2012

  Actual Average Record
Temperature  
Mean Temperature 37 °F 40 °F  
Max Temperature 41 °F 51 °F 66 °F (2004)
Min Temperature 33 °F 29 °F 17 °F (2014)
Degree Days  
Heating Degree Days 28 25  
Month to date heating degree days 586 602  
Since 1 July heating degree days 5725 5967  
Cooling Degree Days 0 0  
Month to date cooling degree days 0 0  
Year to date cooling degree days 0 0  
Moisture  
Dew Point 30 °F    
Average Humidity 74    
Maximum Humidity 96    
Minimum Humidity 51    
Precipitation  
Precipitation 0.08 in 0.08 in 0.57 in (2003)
Month to date precipitation 2.40 1.29  
Year to date precipitation 6.56 5.52  
Sea Level Pressure  
Sea Level Pressure 29.90 in    
Wind  
Wind Speed 9 mph (SSW)    
Max Wind Speed 16 mph    
Max Gust Speed 20 mph    
Visibility 7 miles    
Events Snow    
T = Trace of Precipitation, MM = Missing Value Source: NWS Daily Summary

Daily Weather History Graph

Daily Weather History Graph

Search for Another Location

Airport or City:

Trip Planner

Search our weather history database for the weather conditions in past years. The results will help you decide how hot, cold, wet, or windy it might be!

Date:

Astronomy

Mar. 21, 2012 Rise Set
Actual Time 6:49 AM PDT 7:04 PM PDT
Civil Twilight 6:18 AM PDT 7:35 PM PDT
Nautical Twilight 5:41 AM PDT 8:12 PM PDT
Astronomical Twilight 5:04 AM PDT 8:50 PM PDT
Moon 6:03 AM PDT (3/21) 6:37 PM PDT (3/21)
Length of Visible Light 13h 17m
Length of Day
12h 15m
Waning Crescent, 1% of the Moon is Illuminated
Mar 21
Waning Crescent
Mar 22
New
Mar 30
First Quarter
Apr 6
Full
Apr 13
Last Quarter

Hourly Weather History & Observations

Time (PDT) Temp. Windchill Dew Point Humidity Pressure Visibility Wind Dir Wind Speed Gust Speed Precip Events Conditions
12:53 AM 36.0 °F 27.5 °F 28.0 °F 73% 29.90 in 10.0 mi SSW 12.7 mph - N/A   Clear
1:53 AM 35.1 °F 26.9 °F 28.9 °F 78% 29.93 in 10.0 mi SSW 11.5 mph - N/A   Mostly Cloudy
2:32 AM 35.6 °F 28.6 °F 30.2 °F 81% 29.88 in 10.0 mi SSW 9.2 mph - N/A   Overcast
2:53 AM 35.1 °F 27.4 °F 30.9 °F 85% 29.91 in 10.0 mi SSW 10.4 mph - N/A   Overcast
3:43 AM 35.6 °F 28.0 °F 30.2 °F 81% 29.89 in 10.0 mi SW 10.4 mph - N/A   Overcast
3:53 AM 36.0 °F 29.0 °F 30.9 °F 82% 29.92 in 10.0 mi SW 9.2 mph - N/A   Overcast
4:53 AM 36.0 °F 28.5 °F 30.9 °F 82% 29.91 in 10.0 mi SW 10.4 mph - N/A   Overcast
5:53 AM 36.0 °F 29.6 °F 30.9 °F 82% 29.92 in 10.0 mi SW 8.1 mph - N/A   Overcast
6:53 AM 36.0 °F 28.5 °F 30.9 °F 82% 29.93 in 10.0 mi SSW 10.4 mph - N/A   Overcast
7:06 AM 35.6 °F 27.5 °F 30.2 °F 81% 29.89 in 10.0 mi SSW 11.5 mph - N/A   Overcast
7:16 AM 35.6 °F 27.5 °F 30.2 °F 81% 29.89 in 10.0 mi SSW 11.5 mph - N/A   Overcast
7:53 AM 36.0 °F 28.5 °F 30.9 °F 82% 29.94 in 10.0 mi SSW 10.4 mph - N/A   Overcast
8:53 AM 36.0 °F 28.0 °F 30.9 °F 82% 29.96 in 10.0 mi SSW 11.5 mph - N/A   Overcast
9:53 AM 37.0 °F 29.3 °F 30.0 °F 76% 29.95 in 10.0 mi SW 11.5 mph - N/A   Overcast
10:35 AM 37.4 °F 30.3 °F 28.4 °F 70% 29.91 in 10.0 mi SW 10.4 mph - N/A   Overcast
10:53 AM 37.9 °F 32.1 °F 28.0 °F 68% 29.96 in 10.0 mi SW 8.1 mph - N/A   Overcast
11:25 AM 39.2 °F 31.6 °F 26.6 °F 61% 29.92 in 10.0 mi SSW 12.7 mph - N/A   Overcast
11:33 AM 39.2 °F 32.0 °F 26.6 °F 61% 29.93 in 10.0 mi SW 11.5 mph - N/A   Overcast
11:53 AM 39.9 °F 33.4 °F 27.0 °F 60% 29.96 in 10.0 mi SSW 10.4 mph - N/A   Scattered Clouds
12:53 PM 39.9 °F 33.9 °F 25.0 °F 55% 29.96 in 10.0 mi SSW 9.2 mph - N/A   Overcast
1:53 PM 39.9 °F 35.8 °F 24.1 °F 53% 29.96 in 10.0 mi WSW 5.8 mph - N/A   Overcast
2:53 PM 41.0 °F 35.2 °F 25.0 °F 53% 29.95 in 10.0 mi South 9.2 mph - N/A   Overcast
3:40 PM 37.4 °F 29.3 °F 33.8 °F 87% 29.91 in 10.0 mi SSE 12.7 mph - N/A   Overcast
3:53 PM 37.0 °F 28.5 °F 32.0 °F 82% 29.95 in 10.0 mi SE 13.8 mph - N/A   Overcast
4:41 PM 35.6 °F 29.2 °F 33.8 °F 93% 29.91 in 10.0 mi SSE 8.1 mph - 0.00 in   Overcast
4:53 PM 36.0 °F 29.0 °F 33.1 °F 89% 29.96 in 10.0 mi SSE 9.2 mph - 0.00 in   Overcast
5:13 PM 35.6 °F 29.2 °F 33.8 °F 93% 29.91 in 2.5 mi SSE 8.1 mph - 0.00 in Snow Light Snow
5:37 PM 35.6 °F 29.9 °F 32.0 °F 87% 29.91 in 1.5 mi SE 6.9 mph - 0.01 in Snow Light Snow
5:53 PM 34.0 °F 29.8 °F 32.0 °F 92% 29.96 in 2.0 mi SE 4.6 mph - 0.01 in Snow Light Snow
6:04 PM 33.8 °F - 32.0 °F 93% 29.90 in 3.0 mi North - - 0.00 in Snow Light Snow
6:53 PM 34.0 °F - 32.0 °F 92% 29.95 in 4.0 mi North - - 0.00 in Snow Light Snow
7:02 PM 33.8 °F - 33.8 °F 100% 29.90 in 2.5 mi Calm Calm - 0.00 in Snow Light Snow
7:12 PM 33.8 °F - 32.0 °F 93% 29.89 in 1.8 mi Calm Calm - 0.00 in Snow Light Snow
7:21 PM 33.8 °F - 32.0 °F 93% 29.89 in 2.0 mi Calm Calm - 0.00 in Snow Light Snow
7:35 PM 33.8 °F 30.8 °F 32.0 °F 93% 29.89 in 2.5 mi NNE 3.5 mph - 0.01 in Snow Light Snow
7:42 PM 33.8 °F 30.8 °F 30.2 °F 87% 29.88 in 3.0 mi NNE 3.5 mph - 0.01 in Snow Light Snow
7:53 PM 33.1 °F 30.0 °F 32.0 °F 96% 29.93 in 2.5 mi NE 3.5 mph - 0.01 in Snow Light Snow
8:04 PM 33.8 °F - 30.2 °F 87% 29.87 in 4.0 mi Calm Calm - 0.00 in   Overcast
8:53 PM 33.1 °F 30.0 °F 30.9 °F 92% 29.91 in 9.0 mi NE 3.5 mph - 0.00 in   Overcast
9:53 PM 33.1 °F 26.1 °F 30.9 °F 92% 29.88 in 7.0 mi NNE 8.1 mph - 0.00 in   Overcast
10:53 PM 33.1 °F 26.1 °F 30.9 °F 92% 29.85 in 3.0 mi NNE 8.1 mph - 0.00 in Snow Light Snow
11:02 PM 33.8 °F 26.4 °F 30.2 °F 87% 29.79 in 2.0 mi NNE 9.2 mph - 0.00 in Snow Light Snow
11:12 PM 33.8 °F 27.0 °F 30.2 °F 87% 29.79 in 2.0 mi North 8.1 mph - 0.00 in Snow Light Snow
11:21 PM 33.8 °F 27.0 °F 30.2 °F 87% 29.79 in 1.8 mi North 8.1 mph - 0.01 in Snow Light Snow
11:42 PM 33.8 °F 26.4 °F 30.2 °F 87% 29.77 in 3.0 mi North 9.2 mph - 0.01 in Snow Light Snow
11:53 PM 33.1 °F 24.9 °F 30.9 °F 92% 29.81 in 1.8 mi North 10.4 mph - 0.01 in Snow Light Snow